Location: Gandikunta
(16.3784°N, 80.8378°E)
Time: 06:50:51
(UTC+00:00)

Meteor 1-31 Rocket - Pass Details

Date: 19 May 2025
Orbit: 471 x 488 km, 97.7° (Epoch: 18 June)

Event Time Altitude Azimuth Distance (km) Brightness Sun altitude
Exits shadow 13:52:50 - 175° (S) 2,328 5.7 -12.2°
Reaches altitude 10° 13:54:28 10° 178° (S) 1,633 5.0 -12.6°
Maximum altitude 13:57:57 61° 259° (W) 541 3.0 -13.3°
Drops below altitude 10° 14:01:26 10° 340° (NNW) 1,646 5.9 -14.1°
Sets 14:03:31 0° 344° (NNW) 2,529 6.9 -14.5°
